TimeAKST,TemperatureF,Dew PointF,Humidity,Sea Level PressureIn,VisibilityMPH,Wind Direction,Wind SpeedMPH,Gust SpeedMPH,PrecipitationIn,Events,Conditions,WindDirDegrees,DateUTC
12:16 AM,37.4,33.8,87,30.17,8.0,ESE,8.1,-,0.01,,Overcast,110,2013-03-09 09:16:00
12:36 AM,37.4,33.8,87,30.17,10.0,East,9.2,-,0.02,,Overcast,100,2013-03-09 09:36:00
12:56 AM,37.4,33.8,87,30.17,10.0,East,6.9,-,0.03,,Overcast,100,2013-03-09 09:56:00
1:16 AM,37.4,33.8,87,30.17,9.0,East,6.9,-,N/A,,Overcast,90,2013-03-09 10:16:00
1:36 AM,37.4,33.8,87,30.17,10.0,East,6.9,-,0.01,,Overcast,100,2013-03-09 10:36:00
1:56 AM,37.4,33.8,87,30.17,10.0,East,6.9,-,0.01,,Overcast,100,2013-03-09 10:56:00
2:16 AM,35.6,32.0,87,30.16,10.0,East,8.1,-,0.01,,Overcast,100,2013-03-09 11:16:00
2:36 AM,37.4,33.8,87,30.16,10.0,ESE,6.9,-,0.02,,Overcast,110,2013-03-09 11:36:00
2:56 AM,37.4,32.0,81,30.16,10.0,ESE,8.1,-,0.03,,Overcast,110,2013-03-09 11:56:00
3:16 AM,37.4,32.0,81,30.16,10.0,East,5.8,-,0.01,,Overcast,100,2013-03-09 12:16:00
3:36 AM,35.6,32.0,87,30.15,10.0,East,6.9,-,0.02,,Overcast,100,2013-03-09 12:36:00
3:56 AM,35.6,32.0,87,30.15,10.0,East,6.9,-,0.02,,Overcast,90,2013-03-09 12:56:00
4:16 AM,35.6,32.0,87,30.14,10.0,East,5.8,-,0.01,,Overcast,100,2013-03-09 13:16:00
4:36 AM,37.4,33.8,87,30.14,10.0,ESE,8.1,-,0.01,,Overcast,110,2013-03-09 13:36:00
4:56 AM,37.4,33.8,87,30.14,10.0,ESE,8.1,-,0.02,,Overcast,110,2013-03-09 13:56:00
5:16 AM,37.4,33.8,87,30.14,10.0,ESE,6.9,-,0.01,,Overcast,110,2013-03-09 14:16:00
5:36 AM,35.6,32.0,87,30.13,10.0,East,6.9,-,0.02,,Overcast,100,2013-03-09 14:36:00
5:56 AM,35.6,32.0,87,30.13,10.0,East,9.2,-,0.02,,Overcast,100,2013-03-09 14:56:00
6:16 AM,35.6,32.0,87,30.13,10.0,East,10.4,-,0.01,,Overcast,100,2013-03-09 15:16:00
6:36 AM,35.6,32.0,87,30.12,10.0,East,8.1,-,0.02,,Overcast,100,2013-03-09 15:36:00
6:56 AM,35.6,32.0,87,30.12,8.0,ESE,9.2,-,0.03,,Overcast,110,2013-03-09 15:56:00
7:16 AM,35.6,32.0,87,30.11,9.0,ESE,9.2,-,0.01,,Overcast,110,2013-03-09 16:16:00
7:36 AM,35.6,32.0,87,30.11,10.0,East,8.1,-,0.01,,Overcast,100,2013-03-09 16:36:00
7:56 AM,35.6,32.0,87,30.10,10.0,East,10.4,-,0.02,,Overcast,100,2013-03-09 16:56:00
8:16 AM,35.6,33.8,93,30.10,10.0,ESE,10.4,-,0.01,,Overcast,110,2013-03-09 17:16:00
8:36 AM,35.6,32.0,87,30.09,10.0,ESE,11.5,-,0.01,,Overcast,110,2013-03-09 17:36:00
8:56 AM,35.6,32.0,87,30.09,10.0,East,10.4,-,0.02,,Overcast,100,2013-03-09 17:56:00
9:16 AM,37.4,32.0,81,30.09,9.0,ESE,9.2,-,0.01,,Mostly Cloudy,110,2013-03-09 18:16:00
9:36 AM,35.6,32.0,87,30.08,7.0,ESE,8.1,-,0.03,,Overcast,110,2013-03-09 18:36:00
9:56 AM,35.6,33.8,93,30.08,5.0,ESE,8.1,-,0.04,,Overcast,110,2013-03-09 18:56:00
10:16 AM,37.4,33.8,87,30.07,7.0,East,6.9,-,0.01,,Overcast,100,2013-03-09 19:16:00
10:36 AM,37.4,33.8,87,30.07,9.0,East,9.2,-,0.02,,Overcast,100,2013-03-09 19:36:00
10:56 AM,37.4,33.8,87,30.06,9.0,ESE,9.2,-,0.03,,Overcast,110,2013-03-09 19:56:00
11:36 AM,37.4,33.8,87,30.06,8.0,ESE,8.1,-,0.02,,Overcast,110,2013-03-09 20:36:00
11:56 AM,37.4,33.8,87,30.05,8.0,ESE,4.6,-,0.02,,Overcast,110,2013-03-09 20:56:00
12:16 PM,37.4,33.8,87,30.04,9.0,SE,8.1,-,0.01,,Overcast,130,2013-03-09 21:16:00
12:36 PM,37.4,33.8,87,30.04,9.0,ESE,4.6,-,0.02,,Overcast,120,2013-03-09 21:36:00
12:56 PM,37.4,33.8,87,30.03,10.0,SE,10.4,-,0.02,,Overcast,130,2013-03-09 21:56:00
1:16 PM,37.4,33.8,87,30.03,10.0,SE,9.2,-,0.01,,Overcast,130,2013-03-09 22:16:00
1:36 PM,37.4,33.8,87,30.02,10.0,SE,11.5,-,0.03,,Overcast,130,2013-03-09 22:36:00
1:56 PM,37.4,33.8,87,30.02,10.0,SE,8.1,-,0.04,,Overcast,130,2013-03-09 22:56:00
2:16 PM,37.4,33.8,87,30.02,10.0,SE,9.2,-,0.02,,Overcast,130,2013-03-09 23:16:00
2:36 PM,37.4,33.8,87,30.02,10.0,SSE,4.6,-,0.04,,Overcast,150,2013-03-09 23:36:00
2:56 PM,35.6,32.0,87,30.02,10.0,SSE,6.9,-,0.06,,Overcast,150,2013-03-09 23:56:00
3:16 PM,35.6,32.0,87,30.02,10.0,SSE,8.1,-,0.02,,Overcast,150,2013-03-10 00:16:00
3:36 PM,33.8,30.2,87,30.02,5.0,ESE,6.9,-,0.04,,Overcast,120,2013-03-10 00:36:00
3:56 PM,33.8,30.2,87,30.01,10.0,ESE,6.9,-,0.05,,Mostly Cloudy,120,2013-03-10 00:56:00
4:16 PM,33.8,30.2,87,30.02,10.0,ESE,6.9,-,N/A,,Overcast,110,2013-03-10 01:16:00
4:36 PM,35.6,30.2,81,30.02,10.0,ESE,6.9,-,N/A,,Mostly Cloudy,120,2013-03-10 01:36:00
4:56 PM,33.8,30.2,87,30.02,10.0,SE,8.1,-,N/A,,Scattered Clouds,130,2013-03-10 01:56:00
5:16 PM,35.6,30.2,81,30.03,10.0,SE,8.1,-,N/A,,Mostly Cloudy,140,2013-03-10 02:16:00
5:36 PM,35.6,30.2,81,30.04,10.0,SE,8.1,-,N/A,,Overcast,140,2013-03-10 02:36:00
5:56 PM,35.6,30.2,81,30.05,10.0,SE,10.4,-,N/A,,Overcast,140,2013-03-10 02:56:00
6:16 PM,35.6,32.0,87,30.06,10.0,SE,11.5,-,N/A,,Overcast,140,2013-03-10 03:16:00
6:36 PM,35.6,30.2,81,30.08,10.0,SE,6.9,-,N/A,,Overcast,140,2013-03-10 03:36:00
6:56 PM,35.6,32.0,87,30.09,10.0,SE,8.1,-,N/A,,Overcast,140,2013-03-10 03:56:00
7:16 PM,35.6,32.0,87,30.11,10.0,SE,9.2,-,N/A,,Overcast,130,2013-03-10 04:16:00
7:36 PM,35.6,32.0,87,30.13,10.0,SSE,8.1,-,N/A,,Overcast,150,2013-03-10 04:36:00
7:56 PM,35.6,32.0,87,30.14,10.0,SSE,4.6,-,N/A,,Overcast,150,2013-03-10 04:56:00
8:16 PM,35.6,32.0,87,30.16,10.0,SE,4.6,-,N/A,,Overcast,140,2013-03-10 05:16:00
8:36 PM,35.6,32.0,87,30.17,10.0,SE,5.8,-,N/A,,Overcast,140,2013-03-10 05:36:00
8:56 PM,35.6,32.0,87,30.19,10.0,SE,5.8,-,N/A,,Overcast,130,2013-03-10 05:56:00
9:16 PM,35.6,32.0,87,30.20,10.0,SE,6.9,-,N/A,,Overcast,130,2013-03-10 06:16:00
9:36 PM,35.6,30.2,81,30.21,10.0,SE,4.6,-,N/A,,Mostly Cloudy,140,2013-03-10 06:36:00
9:56 PM,35.6,32.0,87,30.22,10.0,SSE,9.2,-,N/A,,Mostly Cloudy,160,2013-03-10 06:56:00
10:16 PM,35.6,32.0,87,30.23,10.0,SSE,8.1,-,N/A,,Overcast,160,2013-03-10 07:16:00
10:36 PM,35.6,30.2,81,30.24,10.0,SE,6.9,-,N/A,,Scattered Clouds,140,2013-03-10 07:36:00
10:56 PM,35.6,30.2,81,30.24,10.0,SE,9.2,-,N/A,,Partly Cloudy,140,2013-03-10 07:56:00
11:16 PM,35.6,30.2,81,30.26,10.0,SSE,8.1,-,N/A,,Mostly Cloudy,150,2013-03-10 08:16:00
11:36 PM,35.6,30.2,81,30.27,10.0,SSE,8.1,-,N/A,,Mostly Cloudy,160,2013-03-10 08:36:00
11:56 PM,35.6,30.2,81,30.27,10.0,SE,8.1,-,N/A,,Overcast,140,2013-03-10 08:56:00